{"data":{"norad_id":59652,"intl_designator":"2024-082X","name":"STARLINK-31799","alt_names":[],"object_type":"PAYLOAD","status":"ACTIVE","operator":null,"country":"US","launch_date":"2024-05-03","launch_site_code":"AFETR","launch_vehicle":null,"mission":null,"orbit_class":"UNKNOWN","rcs_meters":null,"size_class":null,"mass_kg":null,"dimensions":null,"purposes":["comms"],"wikipedia_slug":null,"has_3d_model":false,"image_url":null,"decayed_at":null,"tle_current":{"epoch":"2026-05-25T04:23:20.528736Z","epoch_age_seconds":58574,"freshness":"FRESH","line1":"1 59652U 24082X   26145.18287649  .00000510  00000+0  28040-4 0  9999","line2":"2 59652  43.0020  57.1438 0000811 269.5644  90.5114 15.27584545116680","mean_motion":15.27584545,"eccentricity":8.11e-5,"inclination_deg":43.002,"raan_deg":57.1438,"arg_perigee_deg":269.5644,"mean_anomaly_deg":90.5114,"bstar":2.804e-5,"rev_number":11668,"period_min":94.26646824317,"perigee_km":482.47904561967,"apogee_km":483.59192779701,"semimajor_km":6861.1724867083,"source":"CELESTRAK","updated_at":"2026-05-25T13:38:19.016807Z"}}}